Weather History for KMLF - September, 2013

Change the Weather History Date:

Tuesday, September 17, 2013

  Actual Average Record
Temperature  
Mean Temperature 70 °F -  
Max Temperature 86 °F 77 °F 91 °F (2000)
Min Temperature 55 °F 43 °F 30 °F (1996)
Cooling Degree Days 6    
Growing Degree Days 20 (Base 50)    
Moisture  
Dew Point 40 °F    
Average Humidity 32    
Maximum Humidity 69    
Minimum Humidity 7    
Precipitation  
Precipitation 0.00 in - - ()
Sea Level Pressure  
Sea Level Pressure 29.69 in    
Wind  
Wind Speed 16 mph (SSW)    
Max Wind Speed 38 mph    
Max Gust Speed 48 mph    
Visibility 10 miles    
Events      
Averages and records for this station are not official NWS values.
T = Trace of Precipitation, MM = Missing Value Source: NWS Daily Summary

Daily Weather History Graph

Daily Weather History Graph

Search for Another Location

Airport or City:

Trip Planner

Search our weather history database for the weather conditions in past years. The results will help you decide how hot, cold, wet, or windy it might be!

Date:

Astronomy

Sep. 17, 2013 Rise Set
Actual Time 7:15 AM MDT 7:36 PM MDT
Civil Twilight 6:49 AM MDT 8:02 PM MDT
Nautical Twilight 6:18 AM MDT 8:33 PM MDT
Astronomical Twilight 5:46 AM MDT 9:05 PM MDT
Moon 6:25 PM MDT (9/17) 5:15 AM MDT (9/17)
Length of Visible Light 13h 13m
Length of Day
12h 20m
Waxing Gibbous, 96% of the Moon is Illuminated
Sep 17
Waxing Gibbous
Sep 19
Full
Sep 26
Last Quarter
Oct 4
New
Oct 11
First Quarter

Hourly Weather History & Observations

Time (MDT) Temp. Dew Point Humidity Pressure Visibility Wind Dir Wind Speed Gust Speed Precip Events Conditions
12:52 AM 66.9 °F 46.0 °F 47% 29.81 in 10.0 mi SW 11.5 mph - N/A   Scattered Clouds
1:52 AM 70.0 °F 46.0 °F 42% 29.79 in 10.0 mi SW 11.5 mph - N/A   Partly Cloudy
2:52 AM 66.9 °F 46.0 °F 47% 29.78 in 10.0 mi SW 12.7 mph - N/A   Clear
3:52 AM 66.9 °F 46.0 °F 47% 29.76 in 10.0 mi SW 11.5 mph - N/A   Partly Cloudy
4:52 AM 62.1 °F 46.0 °F 56% 29.76 in 10.0 mi South 4.6 mph - N/A   Clear
5:52 AM 57.0 °F 46.9 °F 69% 29.77 in 10.0 mi SSW 6.9 mph - N/A   Clear
6:52 AM 57.0 °F 46.9 °F 69% 29.77 in 10.0 mi South 6.9 mph - N/A   Clear
7:52 AM 57.9 °F 46.9 °F 67% 29.79 in 10.0 mi South 6.9 mph - N/A   Clear
8:52 AM 71.1 °F 46.9 °F 42% 29.77 in 10.0 mi SW 11.5 mph - N/A   Scattered Clouds
9:52 AM 75.0 °F 46.9 °F 37% 29.74 in 10.0 mi SSW 16.1 mph - N/A   Partly Cloudy
10:52 AM 81.0 °F 44.1 °F 27% 29.73 in 10.0 mi South 23.0 mph 35.7 mph N/A   Scattered Clouds
11:52 AM 82.0 °F 37.9 °F 21% 29.71 in 10.0 mi South 35.7 mph 43.7 mph N/A   Partly Cloudy
12:52 PM 81.0 °F 37.0 °F 21% 29.71 in 10.0 mi SSW 33.4 mph 42.6 mph N/A   Mostly Cloudy
1:52 PM 84.9 °F 33.1 °F 16% 29.67 in 10.0 mi SSW 38.0 mph 48.3 mph N/A   Partly Cloudy
2:52 PM 84.9 °F 32.0 °F 15% 29.63 in 10.0 mi SSW 33.4 mph 48.3 mph N/A   Clear
3:52 PM 84.9 °F 32.0 °F 15% 29.60 in 10.0 mi SSW 28.8 mph 42.6 mph N/A   Clear
4:52 PM 84.9 °F 32.0 °F 15% 29.59 in 10.0 mi SSW 29.9 mph 36.8 mph N/A   Clear
5:52 PM 84.0 °F 33.1 °F 16% 29.59 in 10.0 mi SW 28.8 mph 39.1 mph N/A   Clear
6:52 PM 81.0 °F 33.1 °F 18% 29.60 in 10.0 mi SW 27.6 mph 39.1 mph N/A   Clear
7:52 PM 78.1 °F 33.1 °F 19% 29.60 in 10.0 mi SSW 23.0 mph 29.9 mph N/A   Clear
8:52 PM 73.9 °F 36.0 °F 25% 29.59 in 10.0 mi South 16.1 mph - N/A   Clear
9:52 PM 70.0 °F 37.9 °F 31% 29.60 in 10.0 mi SSW 12.7 mph - N/A   Clear
10:52 PM 66.9 °F 39.0 °F 36% 29.60 in 10.0 mi SW 16.1 mph - N/A   Clear
11:52 PM 66.9 °F 37.9 °F 34% 29.60 in 10.0 mi South 11.5 mph - N/A   Clear